Theta_e
351 356 364 360 362 363 364 365 364 363 362 364 364 365 366 366 367 366 366 364 362 363 362 362 361 360 359 358 358 358 359 356 355 358 360 358 360 361 364 363 363 361 363
354 357 364 364 362 364 366 364 362 364 364 363 363 363 363 364 365 364 365 363 362 361 360 362 360 359 358 357 357 358 358 357 355 357 360 361 361 361 362 359 358 358 364
354 358 361 365 364 365 366 363 364 364 364 364 363 363 362 361 363 362 362 362 361 361 362 361 361 358 358 357 357 357 357 358 358 356 348 344 352 361 361 356 353 353 362
356 357 358 364 364 364 364 364 364 364 364 364 363 362 359 358 360 360 360 361 361 361 360 360 359 358 358 357 356 356 356 356 357 353 343 335 343 358 360 353 349 352 361
355 356 358 365 365 364 363 363 364 363 362 363 363 362 360 357 359 359 359 359 359 359 359 360 359 358 358 357 356 356 356 357 355 350 340 330 337 351 359 356 351 358 359
354 357 362 364 364 364 364 363 364 363 363 362 361 360 359 356 359 359 358 359 358 359 360 361 359 358 358 358 358 358 355 357 354 345 337 334 341 354 359 360 359 360 356
352 357 359 366 366 365 365 363 363 363 362 362 361 360 358 358 360 360 360 359 359 361 360 360 359 358 358 358 357 355 356 355 353 347 341 337 342 350 358 357 358 359 356
354 357 358 363 364 363 362 363 363 363 361 362 361 359 358 357 360 359 360 358 357 357 357 357 358 359 358 358 355 355 358 359 349 344 345 344 343 356 359 354 355 355 356
356 356 356 357 361 364 363 364 362 362 361 362 359 358 357 358 359 358 360 360 359 357 356 356 357 358 359 358 354 358 358 357 338 342 339 343 352 358 359 359 357 358 357
353 352 352 353 354 354 355 362 362 361 360 359 359 357 357 354 357 359 357 360 358 357 356 355 357 358 359 356 355 358 354 356 342 342 339 342 360 359 357 359 357 358 358
349 350 352 352 351 350 352 356 360 360 359 359 357 357 351 346 346 351 357 359 357 359 357 357 357 357 358 356 355 356 357 346 342 340 335 347 360 358 358 357 358 358 358
342 345 350 350 351 350 355 352 351 352 350 350 348 348 351 347 345 351 356 358 357 355 356 354 355 359 358 352 352 354 348 346 346 340 342 352 360 358 357 358 357 357 357
342 344 347 349 350 350 352 350 350 349 348 348 346 345 348 349 350 349 350 349 349 356 352 354 352 353 352 352 353 350 349 347 346 345 349 359 361 358 357 357 357 357 357
341 344 346 349 349 350 350 350 349 348 347 347 347 346 347 348 347 349 349 349 347 346 348 347 351 353 351 351 351 349 349 348 346 346 350 360 359 360 357 357 357 357 358
340 343 345 348 348 349 349 349 348 348 346 345 345 346 346 345 346 347 342 347 346 345 344 346 346 346 348 351 343 347 340 347 347 347 348 360 361 360 359 357 357 357 357
341 342 345 346 347 347 347 348 348 347 346 346 346 344 343 347 346 344 345 347 345 346 346 348 344 336 336 339 341 345 345 345 349 347 349 352 362 361 361 357 356 356 356
340 344 344 346 347 346 346 346 346 346 346 344 346 343 344 347 346 344 344 347 346 346 348 348 345 338 335 342 347 349 347 345 347 347 350 352 356 362 359 359 360 360 357
342 342 346 349 347 347 345 345 345 345 343 342 343 345 344 350 348 345 345 343 345 347 349 347 338 340 341 345 343 342 344 345 344 347 350 351 352 354 359 361 361 361 357
342 343 342 345 344 344 345 344 344 344 343 342 343 344 345 346 347 343 343 344 344 346 345 348 344 342 343 341 344 341 345 342 343 347 347 349 350 350 350 358 361 361 358
341 342 342 342 343 343 342 342 342 343 344 344 344 345 345 341 345 345 345 343 343 344 345 346 344 345 343 341 345 347 343 345 344 343 343 346 346 346 349 349 353 354 361
341 340 340 340 339 340 337 336 339 341 342 341 344 346 343 344 346 344 344 341 342 342 343 346 346 339 338 340 337 335 334 337 343 345 345 342 342 345 347 347 349 349 351
340 340 340 340 337 338 337 337 340 339 341 342 342 344 346 344 346 345 339 338 342 342 343 344 344 340 337 332 330 327 325 333 338 342 343 342 340 344 343 346 347 347 346
339 341 341 340 338 336 338 338 340 342 339 338 341 342 344 348 348 343 339 339 340 341 341 340 339 339 331 331 331 328 325 324 331 338 336 342 341 342 344 343 345 345 345
340 343 342 341 339 336 336 336 338 337 334 336 338 343 343 348 345 341 340 343 341 339 339 338 352 340 333 330 332 335 330 331 325 325 331 335 339 345 343 343 345 344 346
342 343 342 341 340 337 336 336 338 334 332 333 337 338 340 345 344 341 341 340 341 342 343 339 349 341 338 334 332 331 332 328 329 325 322 326 334 337 338 340 345 346 348
344 343 342 341 341 341 341 338 339 334 331 335 337 336 338 344 348 341 338 337 344 345 349 349 348 347 345 343 337 335 330 330 332 331 331 331 330 334 340 342 346 345 350
Wind_Speed
6 9 13 13 10 12 14 13 12 12 11 12 12 13 15 16 16 15 14 13 12 12 13 13 11 9 6 5 5 5 5 5 6 7 8 8 8 6 10 10 11 10 15
12 10 14 13 12 14 13 13 12 12 11 11 12 11 14 15 15 15 13 12 11 11 11 11 10 7 4 3 4 4 3 5 6 8 7 9 10 8 11 10 10 6 13
12 10 12 12 12 12 14 13 12 12 12 11 12 11 12 13 13 12 12 12 10 10 10 10 10 9 6 4 3 3 2 3 7 7 8 2 1 11 9 11 10 5 12
12 8 9 13 13 13 13 13 12 12 11 11 11 10 10 9 11 10 10 10 9 9 9 8 7 6 5 3 3 3 2 4 6 3 4 2 2 6 10 10 8 7 12
12 9 9 15 14 15 13 12 11 12 11 11 10 9 9 7 8 9 9 8 9 8 9 9 8 6 5 4 3 3 4 6 5 2 3 2 3 3 8 8 10 9 10
12 10 13 16 15 15 14 12 12 12 11 10 9 8 8 6 7 10 9 9 8 9 10 9 8 7 6 6 4 4 5 6 5 4 3 1 3 4 8 8 10 12 10
11 9 11 14 14 14 14 13 12 11 10 9 9 9 8 8 9 10 10 9 8 9 9 8 8 7 5 5 4 3 4 8 8 5 5 3 3 7 9 8 10 11 7
14 11 11 15 15 14 13 12 11 10 10 9 9 8 8 6 8 8 9 8 7 7 7 8 8 7 6 7 2 3 9 13 4 2 3 3 5 5 10 11 11 11 10
11 10 8 8 12 14 13 13 12 11 9 9 7 9 7 7 7 7 8 8 7 6 6 7 8 7 8 6 2 9 8 11 4 3 2 1 7 10 11 11 11 11 12
8 6 6 6 5 5 6 12 11 10 9 8 8 8 7 6 7 6 4 6 5 5 6 5 7 7 8 4 3 6 6 8 2 3 2 2 9 11 12 12 12 11 11
6 7 6 6 6 5 5 7 10 9 9 9 8 9 5 2 2 3 2 3 4 6 5 4 6 7 6 5 4 5 10 0 2 2 2 6 9 13 12 12 11 12 11
8 8 8 6 6 5 4 3 5 4 4 5 5 5 3 2 2 2 4 3 3 2 3 4 5 7 6 1 2 5 3 3 2 3 3 8 12 14 13 13 13 13 13
10 7 8 8 7 7 5 3 3 3 3 3 5 5 3 2 2 1 2 3 2 5 2 3 3 1 4 2 2 3 4 4 3 3 5 10 11 13 12 11 11 11 11
10 8 10 7 8 8 4 3 4 3 3 3 3 5 2 2 0 1 2 2 2 3 2 2 2 4 5 3 4 3 4 3 3 3 4 10 11 12 13 13 12 12 11
7 8 8 7 7 6 6 4 4 4 3 4 3 4 3 2 2 2 1 2 3 3 2 3 3 3 3 1 4 1 4 3 4 3 2 13 12 12 13 13 12 12 11
7 8 7 7 7 6 6 6 5 4 4 4 4 4 4 3 2 1 3 3 3 2 1 2 2 0 0 2 1 3 6 5 6 6 4 5 11 12 11 13 13 12 11
7 6 8 7 6 6 6 5 5 4 4 4 3 5 4 3 3 4 3 4 4 3 5 2 3 3 3 3 3 2 1 5 5 6 5 3 6 12 13 13 12 10 9
10 9 9 8 7 6 6 5 4 5 4 4 3 3 6 3 4 4 3 3 2 4 3 3 4 3 2 1 3 4 4 2 5 5 6 5 4 5 10 12 10 9 10
11 10 7 7 7 7 6 5 5 6 4 4 4 3 4 5 5 5 3 2 2 2 2 2 2 1 3 1 2 2 2 4 5 6 6 7 7 6 4 8 9 8 10
10 8 8 6 7 7 5 4 3 3 3 4 4 3 6 4 5 6 4 3 2 3 3 3 1 1 1 1 1 2 0 3 3 4 6 5 5 5 5 6 4 4 9
10 10 10 9 7 6 3 3 3 4 3 2 3 6 7 5 4 5 3 3 1 2 1 2 0 4 4 3 2 3 3 3 3 2 3 3 6 6 5 5 4 3 4
13 12 10 9 8 6 3 3 3 3 2 3 2 4 7 7 6 5 5 5 5 4 3 1 2 3 3 3 4 2 1 4 2 1 1 5 5 4 5 7 7 6 5
14 13 11 11 10 7 6 3 2 3 3 2 1 3 5 7 6 5 6 4 5 3 1 2 2 3 4 2 0 4 3 3 1 2 1 2 6 6 6 6 7 6 6
15 13 11 11 11 8 7 4 4 4 4 4 3 2 5 6 6 5 5 3 4 3 1 2 1 3 4 4 2 3 3 4 3 1 3 2 4 1 3 4 6 9 8
16 14 12 11 9 9 7 6 5 3 2 2 2 3 3 5 7 8 7 4 4 3 1 3 3 6 2 2 3 2 1 2 3 1 2 3 3 1 2 3 4 4 7
15 14 13 13 10 11 10 8 7 7 6 3 3 3 4 4 5 7 5 5 4 4 5 5 4 4 3 2 3 4 3 3 2 2 2 3 2 3 1 1 3 2 2
Wind_Direction
166 164 166 165 162 153 142 129 127 120 119 116 120 119 120 123 124 128 131 133 129 127 138 141 140 129 120 107 98 98 98 123 140 140 126 130 119 124 132 121 128 133 128
145 162 169 171 159 155 145 136 135 130 133 123 122 127 125 130 130 133 136 140 145 143 141 151 151 147 149 130 114 99 107 149 161 122 114 144 147 157 134 132 110 118 133
143 160 162 164 152 151 137 139 131 133 135 139 135 134 130 129 131 140 144 147 152 146 147 150 159 179 211 182 123 107 118 135 109 127 110 67 241 171 160 143 128 110 145
143 148 149 154 155 151 146 145 143 140 138 141 139 140 133 134 139 144 146 153 150 152 156 159 166 179 198 193 136 145 155 182 138 159 46 347 245 185 181 169 169 167 159
140 143 158 155 156 155 155 155 148 147 150 147 147 142 137 135 147 148 154 150 142 146 138 149 160 169 188 203 169 146 182 170 176 122 122 308 293 244 178 172 164 174 151
141 149 156 157 161 157 155 154 156 154 156 150 145 143 142 145 157 153 144 141 142 139 142 151 156 164 182 198 171 161 173 203 192 138 79 314 279 245 164 174 177 172 157
147 154 155 158 155 155 155 159 162 161 154 146 150 151 161 163 156 142 140 136 139 134 135 152 154 170 191 209 183 176 175 214 215 162 130 178 293 290 155 172 172 173 161
150 156 163 164 162 164 161 164 162 166 158 168 169 160 156 155 139 133 133 131 138 141 150 170 168 184 202 231 204 139 164 205 153 90 106 170 242 251 154 161 159 152 165
151 152 157 165 170 168 168 166 170 160 153 162 161 153 156 145 136 143 153 143 154 147 172 186 186 193 217 221 199 138 189 222 94 116 131 199 227 187 160 164 171 173 182
150 148 151 160 155 158 164 170 166 162 152 148 149 153 153 146 159 160 121 142 147 162 184 197 215 202 229 215 218 143 201 200 152 229 197 183 167 177 167 165 172 169 177
157 156 167 165 167 171 175 179 173 164 152 145 153 154 140 150 86 357 226 185 157 179 176 191 224 218 230 236 240 173 180 124 279 265 274 207 184 181 172 175 166 171 176
173 166 174 173 171 176 183 188 137 147 118 130 139 109 103 55 287 319 350 152 191 123 173 202 234 238 239 163 249 173 150 190 203 246 243 212 184 181 179 175 177 181 183
173 168 177 180 173 171 184 150 132 119 129 131 142 128 107 96 333 356 54 57 23 44 335 334 283 209 240 142 144 162 195 174 185 216 204 188 188 178 178 179 185 189 189
170 171 184 181 170 171 155 153 139 136 138 139 158 112 111 85 141 54 96 112 72 6 354 287 257 228 230 239 103 224 190 156 189 206 201 187 192 183 182 184 188 194 194
170 164 179 159 162 162 162 157 138 159 151 141 161 135 146 140 212 154 113 87 92 56 35 290 282 167 183 85 81 279 259 258 200 180 180 191 195 194 191 189 190 196 193
163 167 156 161 162 155 167 164 159 151 161 154 161 166 167 124 184 60 5 69 65 47 200 257 241 252 206 110 168 188 227 239 222 166 170 195 198 196 196 193 194 198 195
165 161 145 151 159 171 168 158 142 144 155 157 169 176 193 158 199 82 56 15 25 316 271 238 159 179 179 174 224 11 313 200 198 170 168 187 187 195 201 202 198 198 197
156 168 152 157 152 149 155 148 141 163 158 185 175 181 194 163 132 108 73 2 356 311 285 140 186 147 104 284 85 19 346 254 183 184 177 183 188 197 205 207 207 207 205
158 158 148 139 150 146 147 131 145 158 161 191 187 188 155 114 136 135 114 342 16 33 3 261 107 293 101 360 24 235 272 161 195 182 198 190 194 199 199 220 212 217 215
151 145 138 139 143 139 126 122 129 144 179 179 204 166 124 153 180 145 117 93 19 79 53 310 275 197 62 124 280 246 232 150 188 203 192 195 202 205 194 205 207 214 227
144 142 148 142 157 134 133 137 137 162 173 170 185 141 143 162 176 116 119 144 160 108 47 247 319 74 42 63 243 16 346 26 77 353 257 205 210 204 202 205 210 212 222
159 161 152 155 156 151 154 158 152 146 171 181 171 156 154 180 213 125 165 190 169 138 124 82 104 166 156 204 131 100 65 355 335 280 227 210 220 215 209 210 209 207 214
163 166 162 162 161 161 176 129 97 94 76 91 183 156 187 194 200 201 198 209 116 99 30 324 17 164 135 334 296 133 115 182 352 326 319 266 193 191 211 206 212 219 204
171 166 160 164 162 164 171 163 161 172 154 198 178 146 173 190 181 198 232 233 126 132 160 301 307 179 109 141 182 66 43 126 146 342 324 338 294 170 238 235 215 216 198
167 168 165 163 171 158 173 175 179 154 159 172 179 179 164 191 193 201 195 209 212 197 206 244 258 153 131 151 131 115 141 106 75 79 190 281 307 245 208 251 274 224 199
169 166 166 166 180 167 173 181 183 176 174 158 184 205 231 171 193 207 212 220 209 223 197 180 158 153 191 224 150 143 158 128 150 224 213 232 249 293 324 196 267 233 242